WEATHER DATA

TODAY
Time Temp. Dewp. Hum. Bar. 1h Prec. 24h Prec.
00:00 4.8 2 82 1018.7 0.3030 0.0000
00:10 4.8 1.8 81 1018.7 0.1010 0.0000
00:20 4.7 1.7 81 1018.5 0.0000 0.0000
00:30 4.7 1.7 81 1018.5 0.0000 0.0000
00:40 4.7 1.7 81 1018.5 0.0000 0.0000
00:51 4.8 1.6 80 1018.5 0.0000 0.0000
01:00 4.9 1.7 80 1018.5 0.0000 0.0000
01:10 5.1 1.8 79 1018.5 0.0000 0.0000
01:21 5.2 1.9 79 1018.3 0.1010 0.1000
01:31 5.1 1.9 80 1018.2 0.1010 0.1000
01:41 5.1 1.8 79 1018.1 0.1010 0.1000
01:51 5.1 1.8 79 1018.1 0.1010 0.1000
02:01 5.2 1.7 78 1018.2 0.1010 0.1000
02:11 5.2 1.7 78 1018.3 0.0000 0.1000
02:21 5.3 2 79 1018.2 0.0000 0.1000
02:32 5.2 1.9 79 1018 0.0000 0.1000
02:41 5.2 1.9 79 1017.8 0.0000 0.1000
02:51 5.2 1.9 79 1017.7 0.0000 0.1000
03:01 5.3 2 79 1017.8 0.0000 0.1000
03:12 5.4 2.1 79 1017.9 0.0000 0.1000
03:22 5.5 2 78 1017.7 0.0000 0.1000
03:31 5.5 1.8 77 1017.6 0.0000 0.1000
03:42 5.5 1.8 77 1017.5 0.0000 0.1000
03:52 5.5 1.8 77 1017.4 0.0000 0.1000
04:02 5.5 1.8 77 1017.2 0.0000 0.1000
04:12 5.6 1.9 77 1017.1 0.0000 0.1000
04:22 5.7 2 77 1017 0.0000 0.1000
04:32 5.9 2.2 77 1017.2 0.0000 0.1000
04:42 6.2 2.3 76 1017.1 0.0000 0.1000
04:53 6.4 2.5 76 1016.9 0.0000 0.1000
05:02 6.5 2.8 77 1016.9 0.1010 0.2000
05:12 6.5 2.9 78 1017 0.2020 0.3000
05:22 6.4 2.8 78 1017 0.2020 0.3000
05:33 6.4 2.8 78 1016.9 0.2020 0.3000
05:43 6.4 2.7 77 1016.9 0.2020 0.3000
05:53 6.4 2.7 77 1016.7 0.2020 0.3000
06:03 6.2 2.7 78 1016.6 0.0000 0.3000
06:13 6.2 2.7 78 1016.7 0.0000 0.3000
06:23 6.2 2.8 79 1016.8 0.0000 0.3000
06:33 6.3 2.8 78 1016.9 0.0000 0.3000
06:43 6.2 2.7 78 1016.8 0.0000 0.3000
06:53 6.2 2.8 79 1016.8 0.0000 0.3000
07:03 6.3 3.1 80 1016.9 0.0000 0.3000
07:14 6.4 3 79 1017 0.0000 0.3000
07:24 6.4 3 79 1017 0.0000 0.3000
07:33 6.5 3.1 79 1017.3 0.0000 0.3000
07:43 6.7 3.1 78 1017.2 0.0000 0.3000
07:54 6.7 3 77 1017.4 0.0000 0.3000
08:04 6.8 3.1 77 1017.5 0.0000 0.3000
08:14 6.9 3.2 77 1017.6 0.0000 0.3000
08:24 6.9 3.2 77 1017.7 0.0000 0.3000
08:34 7 3.2 77 1017.8 0.0000 0.3000
08:44 7.2 3.3 76 1018 0.0000 0.3000
08:54 7.3 3.5 77 1018.1 0.0000 0.3000
09:05 7.3 3.5 77 1018.2 0.0000 0.3000
09:14 7.3 3.7 78 1018.3 0.0000 0.3000
09:24 7.4 3.6 77 1018.5 0.0000 0.3000
09:34 7.5 3.5 76 1018.5 0.0000 0.3000
09:45 7.6 3.5 75 1018.8 0.0000 0.3000
09:55 7.8 3.7 75 1018.8 0.0000 0.3000
10:05 7.8 3.7 75 1018.9 0.0000 0.3000
10:15 7.9 3.7 75 1019.1 0.0000 0.3000
10:25 8 3.8 75 1019.1 0.0000 0.3000
10:35 8 3.8 75 1019.2 0.0000 0.3000
10:45 8.1 3.8 74 1019.3 0.0000 0.3000
10:56 8.3 3.4 71 1019.3 0.0000 0.3000
11:05 8.4 3.3 70 1019.3 0.0000 0.3000
11:15 8.5 3.3 70 1019.2 0.0000 0.3000
11:26 8.6 3 68 1019.2 0.0000 0.3000
11:36 8.7 3.3 69 1019.1 0.0000 0.3000
11:46 8.8 3.4 69 1019.2 0.0000 0.3000
11:55 8.8 3.4 69 1019.3 0.0000 0.3000
12:06 8.8 3.4 69 1019.3 0.0000 0.3000
12:16 8.8 3.6 70 1019.1 0.0000 0.3000
12:26 9 3.8 70 1019.2 0.0000 0.3000
12:37 9 3.8 70 1019.4 0.0000 0.3000
12:46 9 4 71 1019.5 0.0000 0.3000
12:56 9 4.2 72 1019.5 0.0000 0.3000
13:06 9.1 4.1 71 1019.4 0.0000 0.3000
13:17 9.2 4 70 1019.5 0.0000 0.3000
13:27 9.2 4 70 1019.6 0.0000 0.3000
13:36 9.2 4 70 1019.7 0.0000 0.3000
13:47 9.2 4 70 1019.7 0.0000 0.3000
13:57 9.1 3.9 70 1019.8 0.0000 0.3000
14:07 9.1 3.7 69 1019.9 0.0000 0.3000
14:17 9 3.4 68 1020 0.0000 0.3000
14:27 9 3.2 67 1020 0.0000 0.3000
14:37 9 3 66 1020.2 0.0000 0.3000
14:47 8.8 2.8 66 1020.3 0.0000 0.3000
14:58 8.6 2.6 66 1020.4 0.0000 0.3000
15:07 8.4 2.6 67 1020.5 0.0000 0.3000
15:17 8.3 2.7 68 1020.6 0.0000 0.3000
15:27 8.2 2.7 68 1020.7 0.0000 0.3000
15:38 8.1 2.8 69 1020.8 0.0000 0.3000
15:48 7.9 2.8 70 1020.8 0.0000 0.3000
15:57 7.7 2.8 71 1021 0.0000 0.3000
16:08 7.5 2.8 72 1021.2 0.0000 0.3000

DAY STATISTIC

2023-02-01
TEMPERATURE
AVERAGE
7.0
HIGH
9.2
13:17
LOW
4.7
00:20
PRESSURE
AVERAGE
1018.5
HIGH
1021.2
16:08
LOW
1016.6
06:03
DEWPOINT
AVERAGE
2.8
HIGH
4.2
12:56
LOW
1.6
00:51
HUMIDITY
AVERAGE
75
HIGH
82
00:00
LOW
66
14:37
PRECIPITATION
RAIN HOUR
0.3
RAIN DAY
0.3
TEMPERATURE (°C)
LOW
4.7
HIGH
9.2
AVERAGE
7.0
PRESSURE (hpa)
LOW
1016.6
HIGH
1021.2
AVERAGE
1018.5
DEVICE